Weather History for Sussex, NJ

Change the Weather History Date:

Tuesday, May 28, 2013

  Actual Average Record
Temperature  
Mean Temperature 52 °F -  
Max Temperature 61 °F 72 °F 90 °F (1965)
Min Temperature 42 °F 47 °F 35 °F (1983)
Degree Days  
Heating Degree Days 14    
Growing Degree Days 2 (Base 50)    
Moisture  
Dew Point 52 °F    
Average Humidity 91    
Maximum Humidity 97    
Minimum Humidity 64    
Precipitation  
Precipitation 0.54 in - - ()
Sea Level Pressure  
Sea Level Pressure 30.18 in    
Wind  
Wind Speed 0 mph (NNE)    
Max Wind Speed 5 mph    
Max Gust Speed -    
Visibility 5 miles    
Events Fog , Rain    
Averages and records for this station are not official NWS values.
T = Trace of Precipitation, MM = Missing Value Source: NWS Daily Summary

Daily Weather History Graph

Daily Weather History Graph

Search for Another Location

Airport:

Trip Planner

Search our weather history database for the weather conditions in past years. The results will help you decide how hot, cold, wet, or windy it might be!

Date:

Astronomy

May. 28, 2013 Rise Set
Actual Time 5:29 AM EDT 8:22 PM EDT
Civil Twilight 4:57 AM EDT 8:54 PM EDT
Nautical Twilight 4:16 AM EDT 9:36 PM EDT
Astronomical Twilight 3:28 AM EDT 10:24 PM EDT
Moon 11:42 PM EDT 9:16 AM EDT
Length of Visible Light 15h 57m
Length of Day
14h 52m
Waning Gibbous, 83% of the Moon is Illuminated
May 28
Waning Gibbous
May 31
Last Quarter
Jun 8
New
Jun 16
First Quarter
Jun 23
Full

Hourly Weather History & Observations

Time (EDT) Temp. Dew Point Humidity Pressure Visibility Wind Dir Wind Speed Gust Speed Precip Events Conditions
12:53 AM 48.9 °F 45.0 °F 86% 30.20 in 10.0 mi Calm Calm - N/A   Clear
1:53 AM 46.0 °F 44.1 °F 93% 30.21 in 10.0 mi Calm Calm - N/A   Clear
2:53 AM 46.9 °F 44.1 °F 90% 30.20 in 10.0 mi Calm Calm - N/A   Clear
3:53 AM 46.0 °F 44.1 °F 93% 30.20 in 10.0 mi Calm Calm - N/A   Clear
4:53 AM 45.0 °F 43.0 °F 93% 30.20 in 10.0 mi Calm Calm - N/A   Clear
5:39 AM 44.6 °F 42.8 °F 93% 30.21 in 1.0 mi Calm Calm - N/A   Mist
5:46 AM 42.8 °F 41.0 °F 93% 30.21 in 0.5 mi Calm Calm - N/A Fog Fog
5:53 AM 43.0 °F 42.1 °F 97% 30.21 in 3.0 mi Calm Calm - N/A   Clear
6:53 AM 46.9 °F 45.0 °F 93% 30.21 in 10.0 mi Calm Calm - N/A   Clear
7:53 AM 52.0 °F 48.0 °F 86% 30.21 in 10.0 mi Calm Calm - N/A   Clear
8:53 AM 57.0 °F 48.0 °F 72% 30.22 in 10.0 mi Calm Calm - N/A   Clear
9:53 AM 60.1 °F 48.0 °F 64% 30.22 in 10.0 mi Calm Calm - N/A   Scattered Clouds
10:53 AM 61.0 °F 48.9 °F 64% 30.22 in 10.0 mi Calm Calm - 0.00 in Rain Light Rain
11:53 AM 57.9 °F 52.0 °F 81% 30.22 in 4.0 mi SW 3.5 mph - 0.04 in Rain Light Rain
12:53 PM 57.9 °F 54.0 °F 87% 30.19 in 6.0 mi Calm Calm - 0.05 in Rain Light Rain
1:25 PM 59.0 °F 55.4 °F 88% 30.19 in 6.0 mi Variable 4.6 mph - 0.02 in Rain Light Rain
1:53 PM 57.9 °F 54.0 °F 87% 30.19 in 3.0 mi Calm Calm - 0.06 in Rain Rain
2:01 PM 57.2 °F 53.6 °F 88% 30.19 in 2.5 mi Calm Calm - 0.03 in Rain Rain
2:09 PM 57.2 °F 53.6 °F 88% 30.18 in 2.0 mi Calm Calm - 0.06 in Rain Rain
2:27 PM 57.2 °F 55.4 °F 94% 30.18 in 2.5 mi Calm Calm - 0.11 in Rain Rain
2:46 PM 57.2 °F 55.4 °F 94% 30.20 in 1.2 mi NNW 3.5 mph - 0.21 in Rain Heavy Rain
2:53 PM 57.0 °F 55.0 °F 93% 30.19 in 1.0 mi Calm Calm - 0.24 in Rain Rain
2:58 PM 57.2 °F 55.4 °F 94% 30.19 in 2.0 mi Calm Calm - 0.02 in Rain Rain
3:07 PM 57.2 °F 55.4 °F 94% 30.19 in 2.5 mi Calm Calm - 0.04 in Rain Rain
3:14 PM 57.2 °F 55.4 °F 94% 30.19 in 3.0 mi Calm Calm - 0.06 in Rain Rain
3:21 PM 57.2 °F 55.4 °F 94% 30.19 in 3.0 mi Calm Calm - 0.08 in Rain Rain
3:36 PM 57.2 °F 55.4 °F 94% 30.18 in 3.0 mi East 3.5 mph - 0.11 in Rain Rain
3:43 PM 57.2 °F 55.4 °F 94% 30.19 in 4.0 mi Calm Calm - 0.11 in Rain Light Rain
3:53 PM 57.9 °F 55.9 °F 93% 30.19 in 5.0 mi Calm Calm - 0.12 in Rain Light Rain
4:08 PM 57.2 °F 55.4 °F 94% 30.18 in 6.0 mi Calm Calm - 0.00 in Rain Light Rain
4:18 PM 57.2 °F 55.4 °F 94% 30.18 in 5.0 mi NNE 3.5 mph - 0.01 in Rain Light Rain
4:34 PM 57.2 °F 55.4 °F 94% 30.17 in 6.0 mi Calm Calm - 0.01 in   Overcast
4:42 PM 57.2 °F 55.4 °F 94% 30.17 in 6.0 mi Calm Calm - 0.01 in   Overcast
4:53 PM 57.9 °F 55.0 °F 90% 30.18 in 5.0 mi NNE 3.5 mph - 0.01 in   Overcast
5:28 PM 57.2 °F 55.4 °F 94% 30.16 in 8.0 mi NNE 3.5 mph - 0.00 in   Overcast
5:53 PM 57.9 °F 55.0 °F 90% 30.17 in 7.0 mi Calm Calm - 0.00 in   Overcast
6:01 PM 57.2 °F 55.4 °F 94% 30.16 in 6.0 mi Calm Calm - N/A   Overcast
6:53 PM 57.0 °F 55.0 °F 93% 30.16 in 4.0 mi Calm Calm - 0.01 in Rain Light Rain
7:14 PM 57.2 °F 55.4 °F 94% 30.15 in 2.5 mi Calm Calm - 0.01 in Rain Light Rain
7:42 PM 57.2 °F 55.4 °F 94% 30.15 in 1.8 mi Calm Calm - 0.01 in   Overcast
7:53 PM 57.0 °F 55.9 °F 96% 30.14 in 1.2 mi Calm Calm - 0.01 in   Overcast
8:04 PM 57.2 °F 55.4 °F 94% 30.14 in 1.5 mi Calm Calm - N/A   Overcast
8:23 PM 57.2 °F 55.4 °F 94% 30.14 in 3.0 mi Calm Calm - N/A   Overcast
8:53 PM 57.0 °F 55.0 °F 93% 30.14 in 3.0 mi Calm Calm - N/A   Overcast
9:35 PM 57.2 °F 55.4 °F 94% 30.14 in 2.5 mi Calm Calm - N/A   Overcast
9:53 PM 57.0 °F 55.0 °F 93% 30.14 in 2.5 mi Calm Calm - N/A   Overcast
10:08 PM 57.2 °F 55.4 °F 94% 30.14 in 3.0 mi Calm Calm - N/A   Overcast
10:26 PM 57.2 °F 55.4 °F 94% 30.13 in 2.0 mi Calm Calm - N/A   Overcast
10:53 PM 57.0 °F 55.0 °F 93% 30.13 in 3.0 mi Calm Calm - N/A   Overcast
11:53 PM 57.0 °F 55.9 °F 96% 30.13 in 4.0 mi Calm Calm - N/A   Overcast